{"data":{"norad_id":65335,"intl_designator":"2025-189N","name":"STARLINK-34874","alt_names":[],"object_type":"PAYLOAD","status":"ACTIVE","operator":null,"country":"US","launch_date":"2025-08-27","launch_site_code":"AFETR","launch_vehicle":null,"mission":null,"orbit_class":"UNKNOWN","rcs_meters":null,"size_class":null,"mass_kg":null,"dimensions":null,"purposes":["comms"],"wikipedia_slug":null,"has_3d_model":false,"image_url":null,"decayed_at":null,"tle_current":{"epoch":"2026-09-20T13:48:10.694592Z","epoch_age_seconds":111008,"freshness":"FRESH","line1":"1 65335U 25189N   26263.57512378  .00015432  00000+0  46671-3 0  9995","line2":"2 65335  53.1585  19.4563 0001027  71.8822 288.2293 15.34415081 60975","mean_motion":15.34415081,"eccentricity":0.0001027,"inclination_deg":53.1585,"raan_deg":19.4563,"arg_perigee_deg":71.8822,"mean_anomaly_deg":288.2293,"bstar":0.00046671,"rev_number":6097,"period_min":93.84683569856,"perigee_km":461.95586697476,"apogee_km":463.36096635335,"semimajor_km":6840.7954166641,"source":"CELESTRAK","updated_at":"2026-09-21T09:00:35.571329Z"}}}